Theta_e
352 351 351 353 353 352 354 353 349 348 346 344 344 346 349 346 342 341 341 341 341 340 339 340 340 341 343 345 346 347 348 348 348 348 348 348 347 347 347 348 350 350 351 351 352 351 352 351 351 351 350 350 350 352 351 351 351 351 351 350 349 350 350 351 352 352 352 352 351 350 350 350 351 350 350 350 350 352 351 349 348 347 348 348 346
351 351 351 352 352 352 354 351 349 350 349 348 346 346 345 341 338 339 338 338 338 337 339 341 342 343 343 344 345 347 349 349 349 349 349 349 348 348 348 347 348 349 349 350 351 351 351 351 352 352 351 351 352 352 352 352 352 351 351 350 349 350 350 351 352 352 352 351 351 350 350 350 351 351 350 351 351 350 350 349 348 348 348 347 345
351 352 352 352 353 353 353 351 349 350 350 350 348 347 346 342 339 338 337 337 337 339 341 343 344 345 344 345 346 348 349 350 350 351 351 350 350 350 349 349 348 348 349 350 351 351 351 351 352 351 350 351 351 352 354 353 352 352 352 352 351 350 350 351 352 352 352 352 352 351 351 351 351 351 350 350 350 350 349 349 348 348 348 346 344
352 352 353 354 354 355 353 351 351 351 350 349 347 346 345 340 337 336 337 338 339 341 341 343 344 345 346 346 347 348 350 351 351 352 352 350 350 351 350 350 350 349 350 351 351 351 351 352 351 350 349 350 351 352 353 352 352 352 352 352 352 351 350 351 351 352 351 350 350 350 351 351 351 351 351 350 349 350 350 349 348 348 347 344 343
353 352 353 354 355 354 351 352 352 351 350 349 343 339 339 335 335 337 340 343 344 342 342 344 345 346 347 347 348 350 349 350 351 352 351 350 350 350 350 351 351 351 352 352 351 351 351 351 350 349 349 349 350 351 352 351 352 353 352 352 351 351 350 350 351 351 350 349 349 350 350 350 350 350 350 350 349 349 349 348 348 347 345 344 341
354 352 354 355 354 352 351 352 351 351 350 349 344 336 335 335 338 341 345 348 346 344 345 346 346 346 348 348 350 350 350 349 352 351 350 350 351 350 350 351 352 352 353 353 353 352 352 351 350 349 350 349 349 349 350 350 352 352 351 351 350 349 349 349 350 350 349 349 348 349 350 349 349 350 349 348 348 349 349 348 348 345 344 343 339
354 354 354 354 352 351 351 351 350 350 349 349 344 337 336 338 342 344 346 347 346 346 347 347 348 348 348 349 348 350 351 351 351 350 349 349 350 351 351 352 353 353 353 353 353 353 352 351 351 350 350 350 349 350 350 351 351 351 350 350 350 349 349 350 349 349 348 348 348 348 349 350 349 349 348 346 347 348 348 347 346 345 343 342 338
354 354 353 352 351 350 350 350 349 350 348 346 343 338 339 342 344 345 346 346 347 349 348 347 348 349 348 348 348 349 351 351 350 350 349 350 351 352 352 353 353 353 352 352 353 353 352 351 351 351 351 351 351 351 351 351 351 350 350 351 351 349 349 349 348 347 347 347 347 347 348 349 348 346 345 344 345 346 345 344 344 344 343 341 337
355 354 352 351 350 350 351 351 351 348 345 343 340 339 342 344 344 346 347 349 350 350 348 347 348 348 348 348 349 349 351 351 351 351 351 351 352 352 352 353 352 353 353 352 352 351 351 350 350 350 352 351 351 351 351 351 351 350 350 351 350 349 347 346 346 346 345 346 346 347 347 348 346 346 344 343 343 343 343 343 343 343 341 339 337
354 354 352 351 350 350 352 353 353 349 342 342 342 344 345 345 346 348 350 351 351 349 348 347 347 348 349 350 350 350 352 352 352 352 352 352 352 351 352 353 352 352 352 352 351 350 350 349 350 350 350 351 351 351 351 351 351 351 351 351 349 348 347 344 344 344 344 345 346 346 346 346 345 345 341 338 340 340 342 342 342 341 339 339 339
353 353 351 350 350 351 353 354 354 351 347 346 347 346 346 346 348 351 351 351 350 349 348 348 348 350 350 351 351 352 353 353 352 352 352 352 351 351 352 352 353 352 353 352 351 350 349 349 349 349 350 351 351 351 351 351 350 351 351 350 350 349 346 343 342 343 344 345 345 345 344 342 342 341 337 336 338 341 344 344 343 341 339 340 341
353 351 350 351 351 352 354 354 354 353 351 350 349 346 346 347 350 352 351 351 350 349 349 349 349 350 351 352 353 353 353 352 352 352 352 351 351 351 351 352 353 352 352 352 350 349 348 349 349 350 351 351 351 351 351 350 350 351 351 351 350 348 344 341 341 343 345 345 344 344 343 343 342 340 339 340 341 344 345 343 341 339 340 341 343
351 349 350 351 353 354 354 354 353 352 353 351 348 346 347 349 352 353 351 351 351 350 350 349 349 350 351 353 353 353 353 353 353 352 351 352 351 352 352 352 353 353 352 351 350 349 349 350 351 350 351 351 350 350 350 349 349 349 350 350 349 346 343 340 342 344 345 345 345 345 345 345 344 341 340 341 341 343 342 341 340 340 342 342 343
349 349 350 352 353 354 354 355 354 353 352 351 348 346 348 350 351 352 352 352 351 351 350 350 351 352 352 353 353 353 353 354 353 352 351 352 353 352 353 353 353 353 352 351 349 348 349 350 350 351 350 350 349 348 349 349 350 350 349 350 349 346 343 341 342 345 346 345 345 345 344 343 341 338 338 339 339 340 340 341 341 342 343 343 343
348 348 350 352 353 354 355 354 353 352 351 348 344 344 347 349 350 351 352 352 351 351 350 351 352 352 352 353 352 353 352 353 352 352 353 353 353 353 353 353 353 353 352 351 348 349 350 350 349 350 350 350 349 348 348 349 349 349 348 349 349 347 345 343 342 345 346 344 344 343 342 341 338 337 338 339 339 339 340 342 342 343 343 342 343
347 348 350 351 352 354 354 353 352 351 348 344 342 344 348 348 348 350 351 352 351 350 350 352 353 352 352 352 352 352 352 353 353 352 353 352 352 353 353 353 352 352 352 350 348 349 350 349 349 350 349 350 349 348 349 348 348 349 348 348 348 346 345 343 342 344 345 344 343 341 342 341 339 338 339 339 339 339 340 341 342 343 343 343 344
347 349 350 351 352 353 352 352 350 347 345 344 345 347 349 348 349 350 350 350 350 350 350 350 352 352 351 351 351 351 351 352 352 352 353 352 351 352 352 352 351 351 350 349 348 349 349 349 350 350 350 350 348 349 349 347 348 348 348 348 348 345 344 343 341 343 344 343 343 341 343 343 340 340 340 340 340 340 340 341 343 343 343 344 344
348 350 351 351 352 352 351 349 347 345 346 348 349 350 349 349 350 350 350 349 350 349 348 349 351 351 351 351 352 352 351 351 351 352 353 352 351 351 351 350 350 350 348 348 348 347 349 350 351 351 350 350 349 349 349 348 348 349 349 348 347 345 343 341 340 341 344 344 344 343 343 344 342 341 341 342 342 342 342 342 343 344 345 345 345
350 351 350 351 351 350 349 348 347 348 349 351 350 350 350 350 350 350 350 349 349 348 348 350 351 351 351 351 352 352 350 350 351 352 353 351 350 350 350 348 349 350 349 347 346 346 348 350 349 351 350 350 349 349 348 348 349 349 350 349 346 344 342 341 340 340 342 344 344 344 344 344 344 343 343 344 343 344 343 344 345 346 346 347 346
351 350 350 350 351 349 348 349 350 350 350 351 350 351 351 350 350 350 350 348 349 349 350 351 351 351 352 353 352 352 351 350 351 352 353 350 348 349 348 348 349 350 348 346 345 345 347 349 349 351 351 350 350 350 349 348 348 349 350 350 347 344 342 341 340 340 341 342 344 344 345 345 345 345 344 344 344 344 345 346 346 346 346 346 346
350 350 350 350 351 350 350 351 351 350 350 350 350 351 351 350 350 350 349 349 349 350 351 352 353 352 353 353 353 353 351 351 351 352 352 349 348 349 348 348 349 348 347 346 346 344 347 349 349 350 351 351 351 351 350 349 350 350 349 349 346 343 342 342 341 340 340 340 342 344 346 347 346 346 345 345 346 346 347 346 345 346 346 345 345
351 350 351 351 351 351 351 351 350 350 350 350 351 352 352 352 351 350 349 350 351 351 352 353 353 353 353 353 353 353 352 351 351 350 351 349 348 348 347 348 348 348 347 347 346 344 346 348 350 351 351 351 350 351 351 350 351 350 349 346 342 342 342 342 342 341 341 340 341 343 346 347 348 348 347 348 348 348 348 346 345 345 345 344 345
351 351 352 353 352 351 351 351 351 350 350 351 352 353 353 353 352 350 350 351 352 352 353 354 353 352 352 352 352 352 351 350 349 350 350 350 348 347 346 347 347 348 348 348 346 344 345 348 351 351 351 350 350 350 350 350 350 349 346 343 341 341 341 341 342 341 341 341 341 343 345 346 347 347 347 347 347 348 347 345 345 346 345 345 345
352 352 352 353 352 351 351 350 350 350 351 352 354 354 353 353 352 351 351 352 352 353 354 353 353 352 351 351 351 351 350 350 350 350 350 349 348 348 347 347 347 347 347 347 345 346 345 346 350 350 349 349 349 348 348 348 347 346 344 342 342 341 341 341 341 341 341 341 341 343 344 344 344 344 344 345 345 346 345 345 345 345 344 345 345
353 353 353 352 351 351 351 350 350 351 352 353 354 354 353 352 352 352 352 352 352 352 352 352 351 350 350 350 350 350 350 350 351 350 349 349 349 348 348 346 345 346 345 344 344 344 343 344 347 348 347 348 349 348 347 347 346 345 345 344 343 342 341 341 341 340 341 341 341 343 343 343 344 344 344 344 344 344 344 345 345 345 344 344 344
353 353 353 352 351 351 351 350 350 352 353 353 354 353 353 352 352 352 351 351 351 350 350 349 348 348 347 348 348 349 349 350 351 350 348 348 347 347 346 344 343 343 343 342 342 342 342 343 345 345 346 348 349 350 349 347 346 346 347 346 344 343 342 341 341 341 341 340 341 343 344 344 344 344 344 344 344 344 344 344 344 345 345 345 344
353 353 353 352 351 351 351 351 352 353 353 354 354 352 352 351 351 351 349 348 349 348 347 347 348 348 347 346 347 348 349 349 350 349 348 347 347 345 344 343 343 343 344 344 343 344 345 346 346 346 347 349 350 350 350 348 346 346 347 346 345 344 342 339 339 339 338 338 341 343 343 344 344 344 344 344 344 343 343 344 345 345 345 345 345
353 353 352 352 352 352 352 351 352 353 353 353 352 351 351 350 350 350 347 346 346 346 346 347 348 349 348 346 347 347 347 348 348 348 347 347 346 344 343 343 345 347 347 348 348 348 349 348 348 349 349 349 350 349 349 349 347 346 346 346 345 344 341 338 337 337 336 335 338 341 341 341 342 341 344 345 344 343 343 344 345 345 345 346 345
353 352 352 352 351 352 352 352 352 353 352 352 351 351 351 351 350 348 346 345 345 346 346 347 347 348 349 349 346 343 343 344 346 347 346 345 344 342 342 345 347 347 348 349 349 350 349 349 349 349 350 350 350 350 349 348 348 347 346 346 346 345 341 338 337 337 336 336 336 339 339 339 340 340 342 343 343 343 342 344 345 345 346 347 346
352 351 351 351 351 352 352 351 351 352 352 351 349 349 350 350 349 347 346 346 345 346 347 347 347 348 349 349 347 342 342 344 347 349 348 345 343 341 342 344 346 347 348 348 349 349 349 349 349 350 350 350 350 350 349 348 348 347 346 347 347 346 342 338 337 338 338 338 337 338 339 339 341 341 341 341 340 340 340 342 344 345 346 346 345
352 351 350 350 351 353 353 352 350 351 351 350 348 349 349 349 348 348 347 347 347 348 348 348 348 349 349 349 349 346 345 347 349 349 349 348 346 344 343 345 346 347 348 349 348 349 350 350 351 351 349 349 348 349 348 347 347 346 346 347 347 347 344 339 337 338 338 339 339 339 339 340 342 342 342 341 340 340 340 341 344 344 344 344 344
352 350 350 350 351 353 354 353 351 350 350 349 347 348 348 348 349 349 348 348 348 349 349 349 349 349 350 350 350 349 348 348 349 349 349 349 348 348 347 347 347 348 349 349 349 349 351 352 352 352 349 348 347 347 347 346 346 345 345 347 348 347 346 342 338 338 338 339 340 340 340 342 343 343 341 341 341 342 341 343 344 344 343 343 343
353 351 350 351 352 354 354 354 351 348 348 348 347 346 346 348 349 349 349 348 349 349 349 348 348 350 350 351 351 351 350 348 348 348 348 348 348 349 348 349 349 349 350 350 350 350 351 352 352 352 350 348 348 347 346 345 345 345 345 346 348 347 347 346 342 339 339 339 340 341 341 341 342 343 341 341 342 343 344 345 345 344 344 344 344
354 353 352 353 353 354 355 354 351 349 348 346 346 345 346 348 349 350 349 348 349 349 348 347 348 350 350 351 352 352 350 349 348 348 349 349 349 349 349 350 349 351 351 351 350 350 351 352 351 352 350 349 348 347 347 345 345 345 345 345 347 347 347 347 344 342 340 339 339 340 340 341 341 341 341 341 341 342 344 345 345 345 345 345 345
353 354 353 353 354 354 354 354 352 350 348 347 346 344 345 348 350 351 350 348 348 348 348 347 348 350 351 351 351 351 350 349 348 349 350 350 349 350 350 350 350 351 351 351 350 350 350 352 351 351 350 350 349 347 346 346 346 345 345 346 346 347 347 347 346 344 343 341 340 340 340 341 341 341 341 341 341 341 342 343 343 344 344 344 345
353 354 354 354 354 354 354 354 353 351 349 347 346 345 348 350 351 352 351 350 349 348 348 348 348 349 350 350 350 350 350 349 349 349 351 351 350 350 351 351 350 351 351 351 351 351 350 350 350 350 349 350 348 345 344 345 346 345 345 346 346 347 347 347 347 346 345 344 342 342 342 342 341 341 341 341 341 341 341 341 342 343 343 343 343
353 354 353 354 354 354 354 354 354 352 350 348 348 349 351 351 352 352 351 351 349 349 349 348 348 348 348 349 350 350 350 350 349 350 351 352 351 351 351 352 351 351 350 350 350 351 350 350 350 349 349 349 348 346 344 344 345 346 346 346 346 346 346 347 346 346 347 346 344 344 343 343 344 342 342 342 342 341 341 341 341 342 342 342 342
352 353 354 354 353 354 354 354 354 352 350 350 350 352 352 352 352 351 351 350 349 349 348 348 349 349 348 348 349 350 350 350 350 350 351 351 352 351 351 352 352 351 350 349 349 351 351 350 349 349 349 349 348 347 345 344 345 346 346 346 346 346 346 346 345 346 346 346 345 345 345 344 344 344 344 344 343 343 342 341 340 339 340 340 340
352 353 353 354 353 353 354 353 353 352 351 351 352 352 352 352 351 351 351 350 350 349 348 348 350 350 348 348 348 349 350 351 350 350 350 352 352 352 353 352 352 351 349 348 349 351 351 350 350 350 349 349 348 347 346 346 345 346 346 346 346 346 346 346 346 346 346 346 345 345 344 344 344 344 344 345 345 344 343 342 340 338 340 340 340
351 353 353 354 354 353 353 353 352 352 352 352 352 352 352 352 351 351 351 350 350 350 348 348 351 351 350 350 348 348 350 350 351 351 351 352 352 351 352 351 351 350 349 348 349 350 352 350 350 350 350 349 348 347 346 345 345 345 346 346 345 346 346 345 345 346 346 346 345 345 345 344 343 344 343 344 345 345 344 342 341 341 341 341 341
351 352 353 354 354 353 353 353 352 352 353 352 352 352 352 351 350 349 349 349 349 349 348 348 351 352 352 352 350 350 350 350 351 353 352 351 351 351 352 351 351 351 350 348 348 349 351 352 352 351 350 349 348 347 344 343 344 344 344 345 345 344 345 345 344 345 345 345 345 345 345 345 343 343 343 343 344 345 344 342 341 342 342 342 342
351 351 353 354 353 353 353 351 351 352 352 352 352 352 351 349 349 348 348 348 349 349 349 349 351 353 353 353 352 351 351 350 351 352 352 351 350 351 351 351 352 351 350 349 349 349 350 351 352 352 351 349 348 347 344 344 344 344 344 345 344 344 343 344 344 345 345 346 345 344 344 345 344 342 343 343 342 344 345 343 343 343 343 343 342
351 351 352 353 353 352 352 351 350 352 352 352 352 350 350 350 349 348 347 348 349 350 350 350 353 353 352 352 352 352 351 350 351 351 351 350 350 351 350 352 353 351 350 349 348 348 348 350 352 353 352 350 350 348 347 346 345 344 344 346 346 348 348 345 344 345 344 345 345 344 343 343 344 342 342 342 342 342 344 344 343 344 344 344 342
350 350 351 352 352 352 352 351 350 351 352 351 350 349 348 348 348 347 347 348 348 349 351 352 353 353 352 352 352 351 350 349 350 351 351 350 350 351 351 353 354 351 350 349 348 347 349 351 353 354 353 352 351 350 348 348 346 343 345 347 344 347 354 349 342 343 344 344 345 344 343 342 343 343 342 342 342 343 343 344 343 344 344 344 343
349 350 350 350 351 352 351 352 351 351 352 351 350 348 348 348 348 347 347 347 346 349 353 354 354 354 353 352 351 350 349 348 349 352 352 351 351 351 352 353 353 352 352 350 349 349 349 352 354 354 353 352 352 351 350 349 348 345 346 350 348 348 357 352 342 343 344 343 345 344 343 342 342 342 341 342 342 343 343 343 343 343 343 344 344
348 349 350 350 350 351 351 353 352 351 352 351 350 349 348 348 347 347 346 346 347 349 352 354 354 355 353 352 350 349 349 347 349 352 352 352 352 352 353 354 354 353 353 351 350 350 350 350 351 353 353 353 352 352 352 351 349 347 345 349 348 349 353 348 345 348 345 342 344 344 343 342 341 341 341 341 342 343 344 343 342 343 343 343 344
348 349 349 349 350 350 351 352 352 352 352 350 350 348 348 347 347 347 346 345 347 349 350 351 352 353 353 353 351 349 350 348 347 349 350 352 354 353 352 354 354 353 353 352 352 352 351 350 349 352 354 354 353 352 352 351 350 348 347 347 347 347 347 346 346 347 348 346 342 340 341 341 341 341 341 341 342 342 343 344 342 343 343 343 343
347 348 348 348 350 350 351 352 351 351 352 350 349 349 348 347 347 347 347 344 346 348 349 349 350 351 351 353 352 350 350 348 347 348 349 351 355 354 352 354 354 354 354 353 353 352 351 351 350 352 354 354 352 352 350 350 350 349 348 347 347 347 344 345 345 344 348 353 349 345 341 340 341 341 340 341 341 342 343 343 343 342 343 343 343
347 347 347 348 349 350 350 351 351 351 351 351 349 349 348 347 347 348 347 345 345 347 349 349 349 350 350 352 352 351 350 350 348 349 348 349 353 354 354 354 354 354 354 354 354 353 352 352 351 351 354 353 353 353 350 349 350 348 348 347 347 347 343 342 343 343 346 350 352 350 344 340 341 340 340 340 341 342 342 343 343 343 343 343 343
346 346 347 348 349 350 350 350 350 351 351 351 350 349 348 348 347 347 347 346 345 347 349 349 350 351 351 351 352 351 352 351 349 349 349 348 351 354 355 355 355 354 355 355 354 354 353 352 352 351 353 352 353 354 351 348 349 349 348 347 347 346 343 341 341 342 344 344 345 346 343 342 343 341 341 341 341 342 342 343 343 343 343 343 343
345 345 346 347 348 350 350 350 350 350 350 351 350 350 349 348 347 346 348 347 345 346 348 350 351 353 352 351 352 351 353 353 351 349 349 349 351 354 354 355 356 355 355 356 355 354 354 353 352 353 353 352 352 354 353 351 351 352 350 349 348 347 344 343 343 343 344 343 343 344 344 344 344 343 343 342 341 341 341 342 342 342 342 342 343
Wind_Speed
15 18 20 21 23 24 22 21 22 21 21 20 19 19 19 20 21 21 20 20 19 18 18 17 16 15 15 14 14 14 14 14 13 13 14 13 13 13 13 13 12 12 11 11 10 11 11 12 12 12 12 12 13 13 13 14 15 15 15 16 15 15 15 15 15 15 15 15 15 15 15 15 15 16 16 16 16 17 18 19 20 21 19 19 20
18 19 20 21 23 23 21 21 21 21 20 20 19 19 20 21 21 20 19 19 18 17 16 16 15 14 14 14 14 13 13 13 13 13 13 13 13 12 12 12 12 11 11 11 10 11 12 12 12 12 12 13 14 14 14 14 15 15 16 16 16 16 16 16 15 15 15 15 15 15 15 15 15 15 16 16 17 17 18 19 20 21 20 19 20
20 21 22 22 22 21 20 20 20 20 20 19 19 19 20 20 20 19 18 18 17 16 15 15 15 14 13 13 13 13 13 12 12 12 12 12 12 11 12 12 12 12 11 11 11 11 12 12 12 12 13 13 14 14 14 14 15 15 16 16 16 16 16 16 16 16 16 16 16 16 16 16 16 16 16 16 17 18 18 19 19 20 19 19 20
23 24 24 23 21 20 20 20 20 19 19 19 19 19 20 20 19 18 17 16 15 14 14 14 14 14 13 13 12 12 12 11 11 11 11 11 11 11 11 11 11 11 11 11 12 12 12 12 13 13 13 13 14 14 13 14 15 16 16 16 16 16 16 15 16 16 17 17 17 18 17 16 17 16 17 16 17 17 17 18 19 19 19 20 20
24 24 24 23 21 21 21 20 20 20 19 18 19 20 20 20 19 17 16 14 14 13 13 13 13 13 13 12 12 11 11 10 10 10 10 11 11 11 11 11 11 11 11 12 12 13 12 12 13 13 13 13 13 13 13 14 15 15 15 15 16 15 15 15 16 16 17 18 19 19 18 17 17 17 17 17 17 18 17 18 19 19 20 20 19
25 24 24 23 22 22 21 21 20 20 19 18 18 19 20 19 18 16 15 14 13 12 12 12 12 12 12 12 12 11 10 10 10 9 10 10 11 12 12 12 11 11 11 11 12 13 12 12 12 13 13 13 13 13 13 13 13 14 14 15 15 15 15 15 16 17 18 19 19 20 19 18 17 17 18 17 17 18 17 18 18 19 19 19 18
26 26 24 23 23 22 22 21 21 20 19 18 18 19 19 18 16 15 14 13 12 12 11 12 12 11 11 10 11 11 10 9 9 9 10 11 12 12 12 11 11 11 11 11 12 13 13 12 12 13 13 13 13 13 13 12 12 13 15 15 15 15 15 14 15 17 18 19 19 19 19 18 17 16 17 16 17 17 17 17 18 17 18 18 17
27 26 24 24 23 23 22 21 21 19 18 18 18 19 18 16 15 14 13 12 12 11 11 12 12 10 10 9 10 10 9 9 9 9 10 11 12 12 11 11 10 11 11 11 12 12 13 12 12 12 13 13 13 13 13 12 13 13 14 14 14 15 14 14 15 17 17 18 18 18 18 18 17 16 16 16 16 16 16 16 16 16 17 17 17
27 26 25 24 23 23 22 22 21 19 19 19 19 18 17 15 14 13 12 11 11 11 11 11 11 10 10 9 9 9 9 9 9 10 11 11 11 11 11 10 10 11 11 11 12 13 12 12 12 12 12 12 12 13 13 12 13 13 13 13 14 14 14 15 16 16 17 17 17 18 18 18 17 16 15 15 15 16 16 15 16 16 16 16 17
27 25 26 24 24 23 22 22 20 19 20 19 18 17 16 15 13 12 11 11 12 12 11 11 10 10 10 9 9 9 9 9 9 10 10 11 11 11 11 10 11 11 10 11 12 12 12 12 11 12 12 12 12 13 13 13 13 12 13 14 15 15 15 16 16 16 17 17 17 17 17 17 17 16 15 15 15 16 16 16 16 16 16 16 16
26 26 25 24 24 22 21 21 20 19 19 19 18 16 15 14 13 12 11 12 12 12 12 10 10 10 10 9 9 9 9 9 9 10 11 12 12 11 11 11 10 10 11 11 11 11 11 11 11 11 11 11 12 13 13 13 13 13 14 14 14 15 16 16 17 17 17 17 17 17 17 17 17 16 16 16 16 16 15 15 15 15 16 15 15
26 26 24 23 22 21 20 19 19 19 18 18 17 16 15 14 13 12 12 13 13 12 12 11 10 11 10 9 8 8 9 9 9 10 11 11 12 11 11 10 10 11 11 11 11 11 11 11 11 11 11 11 11 12 13 12 13 13 13 13 14 15 16 17 17 17 17 17 18 17 17 17 16 15 16 16 15 15 15 15 15 15 15 14 14
26 26 24 23 21 19 19 19 19 18 18 18 16 16 15 14 12 12 12 13 12 12 12 12 11 11 10 9 8 8 9 9 9 10 10 11 11 11 10 10 10 11 11 11 11 11 10 10 11 11 11 11 11 12 12 12 12 12 12 13 13 14 15 16 16 17 17 17 18 17 17 17 16 15 15 15 14 14 14 15 15 15 14 14 13
27 26 24 22 20 18 18 18 18 18 18 17 16 15 14 14 12 12 12 12 11 11 12 12 11 10 9 9 8 8 8 9 9 10 10 10 10 10 10 10 10 10 11 11 11 10 10 10 11 12 12 13 12 12 12 12 11 11 12 12 12 13 14 15 15 17 17 17 17 17 16 16 15 15 14 14 14 14 14 14 14 14 14 13 13
27 26 24 22 19 18 17 17 18 17 17 15 15 15 14 13 13 12 11 11 11 11 12 11 10 10 10 9 9 9 8 9 10 10 9 9 10 10 9 9 9 10 10 11 11 10 10 10 11 12 12 13 12 12 12 12 12 11 12 12 12 12 12 13 15 16 16 17 17 17 15 15 14 14 14 14 14 14 14 14 14 13 13 12 12
26 26 24 22 19 18 17 17 16 15 14 14 15 15 14 13 13 12 11 12 12 11 11 11 10 10 10 10 9 9 9 8 9 10 9 9 10 10 9 9 9 10 10 10 10 10 10 11 11 12 12 12 12 12 12 12 12 12 11 11 10 10 11 12 14 14 15 16 16 16 15 13 13 14 14 13 13 13 13 13 13 12 12 11 11
25 24 23 21 19 18 17 16 15 14 14 14 14 15 14 13 13 12 12 12 11 11 12 12 11 11 11 10 10 9 9 8 9 9 9 9 9 9 9 9 9 9 10 10 9 9 9 10 11 11 11 11 11 12 11 12 12 11 11 10 10 9 10 12 13 13 14 15 15 15 15 13 13 13 13 13 13 13 13 13 12 11 10 10 10
24 23 22 21 19 18 17 16 15 14 14 14 14 14 14 14 13 13 12 12 11 12 13 13 11 11 11 11 10 9 9 9 9 8 8 9 9 8 8 9 9 9 10 9 9 9 9 10 11 11 11 11 10 11 11 11 11 11 10 10 9 9 11 12 12 13 13 14 14 14 14 13 12 12 12 12 12 12 12 11 11 10 9 9 9
23 23 22 20 19 18 17 16 16 16 15 15 15 14 14 14 14 13 13 12 11 13 13 13 12 11 11 11 10 10 10 9 9 8 8 9 9 8 8 8 8 9 9 9 9 9 9 9 11 11 11 11 10 11 11 11 11 11 10 10 10 9 10 11 12 13 13 13 13 13 13 12 12 11 11 11 11 11 11 10 10 9 8 8 8
22 22 21 20 19 18 18 17 17 17 16 16 16 15 14 14 14 13 13 12 12 13 13 12 12 11 10 10 10 10 10 9 9 8 8 8 8 8 8 8 8 9 9 10 10 9 8 9 11 12 11 10 10 10 10 10 10 11 9 9 10 9 10 10 11 12 12 12 13 13 12 11 11 11 10 10 10 10 9 9 8 8 7 7 8
20 21 20 20 19 19 19 18 18 18 17 17 17 16 14 14 14 14 13 13 13 13 12 11 11 11 11 10 10 10 9 9 9 9 8 8 8 7 7 7 8 9 9 9 9 9 9 8 10 12 11 10 10 9 8 8 9 10 9 8 8 9 9 9 10 11 11 12 12 13 12 10 10 9 9 9 9 9 8 8 7 7 6 6 7
21 21 20 20 20 20 20 19 19 18 18 18 17 15 14 15 15 14 14 14 13 13 11 10 10 11 11 11 11 10 10 9 9 9 9 8 7 6 6 7 8 8 9 8 8 9 9 8 9 10 9 9 9 9 8 8 8 8 8 7 8 8 8 8 9 10 10 10 11 12 11 9 8 8 8 8 7 7 7 7 6 6 5 5 6
22 22 21 20 20 21 20 20 20 19 19 18 17 15 15 15 15 15 15 14 13 13 12 11 11 10 11 11 11 10 10 9 8 9 8 8 7 6 6 7 7 7 8 8 8 8 8 8 8 8 8 8 8 8 8 9 8 7 6 7 8 8 7 7 8 9 9 9 10 10 10 9 8 7 7 7 7 6 6 6 5 5 5 5 4
23 22 22 21 21 22 21 21 20 20 19 18 17 16 16 16 16 15 15 14 14 13 13 12 11 10 10 11 11 10 10 9 8 8 8 8 7 6 6 6 6 7 7 8 9 8 8 8 7 7 7 8 8 7 7 7 7 6 6 7 7 7 6 6 7 8 8 9 9 9 9 8 7 7 6 6 6 5 5 5 5 4 4 4 3
22 22 22 22 22 22 22 22 21 20 19 19 18 17 17 17 16 15 15 14 14 14 13 13 11 11 11 11 11 10 10 9 8 8 8 8 7 7 7 7 7 7 7 8 9 9 10 9 8 7 7 7 7 7 6 5 6 6 5 5 6 6 5 5 6 7 8 8 8 8 8 7 7 7 6 5 5 5 5 4 5 4 4 3 3
21 22 22 23 23 23 23 22 22 21 20 19 18 18 18 17 17 16 15 15 14 14 14 13 12 12 12 11 11 11 10 10 9 8 9 9 8 8 8 8 8 8 8 8 9 9 9 9 7 7 6 6 5 5 5 4 6 6 5 4 4 4 4 5 5 6 7 8 8 7 7 7 7 7 6 5 5 5 4 4 4 4 4 3 3
22 22 23 23 24 24 24 23 22 22 21 20 19 19 18 18 17 16 16 16 15 15 14 14 13 12 12 12 11 11 11 9 9 9 9 9 8 8 9 9 9 9 9 8 8 7 7 6 6 6 5 4 3 2 4 4 5 6 6 4 3 3 4 4 5 6 7 7 7 7 6 6 6 6 6 5 5 5 5 4 4 4 4 3 3
23 23 24 24 25 24 24 24 23 22 22 20 19 19 18 18 17 16 16 16 15 15 14 14 13 12 12 11 11 10 10 9 9 9 9 9 8 9 10 10 11 10 8 8 7 6 5 5 5 5 4 4 3 2 3 4 5 7 7 5 3 3 3 4 5 6 6 7 7 7 6 6 6 6 6 5 5 5 5 4 4 4 4 4 4
24 24 25 25 25 25 24 24 23 23 22 21 20 19 19 19 18 17 17 16 16 15 14 13 13 13 12 11 11 10 10 9 9 9 8 9 9 9 10 11 11 9 8 7 6 5 5 5 4 4 3 4 5 5 5 5 6 9 9 7 4 4 4 5 6 6 6 6 7 7 6 6 6 6 5 5 5 5 5 5 5 5 4 4 4
25 25 26 25 25 25 24 24 23 23 22 21 21 20 20 20 19 18 17 17 16 14 14 13 13 13 12 11 11 11 10 10 9 9 8 8 9 9 10 10 9 7 7 6 5 5 4 4 3 2 3 4 6 7 7 7 8 11 12 9 6 4 4 5 6 6 6 6 6 6 6 5 5 5 4 4 4 5 5 5 5 4 4 4 4
24 26 27 26 25 25 23 24 23 23 23 22 22 21 21 21 20 19 17 17 15 14 14 14 14 13 12 12 11 10 10 10 9 8 8 8 8 9 9 8 7 6 5 5 4 4 3 3 1 1 3 4 5 7 8 8 9 11 13 12 8 5 5 6 7 7 7 7 7 7 6 5 4 4 4 4 4 5 5 5 4 4 4 4 4
25 27 27 26 26 25 24 24 23 23 23 23 22 22 22 21 20 19 18 17 15 14 14 14 14 13 12 11 11 10 9 9 9 8 8 7 8 8 8 8 7 6 5 5 4 4 3 2 1 1 3 4 5 6 7 8 9 11 13 14 11 7 6 6 7 8 8 8 7 7 7 6 5 5 5 5 5 5 5 4 4 3 3 4 4
26 28 27 27 27 26 25 24 24 23 24 23 23 22 22 21 20 19 19 17 16 15 15 15 15 14 12 11 11 10 10 10 10 9 8 7 8 8 7 7 7 6 6 6 6 5 4 3 2 2 2 4 5 6 8 9 10 11 13 14 13 9 7 6 7 7 7 7 7 7 7 7 7 7 6 6 6 6 5 4 4 4 4 4 4
26 27 27 28 27 27 26 25 24 23 24 24 23 23 22 21 20 19 19 17 17 16 16 16 16 14 13 11 11 10 10 10 10 10 10 9 8 8 8 7 7 7 7 7 7 6 6 5 3 2 2 3 4 5 9 11 11 12 13 14 14 10 8 7 6 6 6 6 6 7 7 7 8 8 8 7 7 6 6 6 5 5 5 5 6
27 28 29 29 28 27 26 25 25 24 24 24 24 24 22 21 20 19 18 18 17 17 16 17 16 15 13 12 11 11 11 11 12 12 11 10 9 8 8 8 8 8 8 8 7 7 7 6 5 5 4 3 2 3 7 12 12 12 12 12 13 11 9 8 7 6 6 6 6 7 7 8 8 8 8 8 7 7 7 7 7 6 7 7 7
29 29 29 29 28 28 27 26 25 25 24 24 24 24 22 20 19 18 18 18 17 17 17 17 17 16 15 13 12 12 12 12 13 13 12 12 11 10 9 8 9 9 8 8 8 8 8 7 7 7 5 3 1 1 5 12 14 12 11 11 11 12 10 9 8 7 6 7 7 7 7 8 8 9 9 8 8 8 8 8 8 8 8 8 8
31 30 30 30 30 29 28 27 27 26 25 25 25 23 21 19 18 18 18 18 18 18 17 17 18 17 16 15 14 14 14 14 14 14 13 12 11 11 10 9 9 8 8 8 9 10 9 9 8 7 5 3 2 1 4 11 14 12 11 10 10 11 11 8 8 8 8 8 7 7 7 7 8 8 9 8 8 8 8 9 9 9 8 8 8
32 32 32 31 31 30 29 28 28 27 26 26 25 23 21 19 19 18 18 18 18 18 18 17 17 17 17 16 16 15 15 15 15 14 13 11 11 11 11 10 9 9 8 9 10 11 10 9 8 7 5 4 3 3 3 7 12 12 12 11 10 10 9 7 7 8 9 8 7 7 6 6 7 8 8 7 7 7 7 8 8 8 8 7 8
33 33 32 32 31 30 30 29 29 29 27 26 25 24 22 21 20 19 19 19 18 19 19 18 17 17 17 17 17 17 16 16 15 15 14 12 11 12 11 10 10 9 9 10 11 11 10 9 8 7 6 5 3 3 3 5 9 11 12 11 10 9 8 8 8 9 9 9 8 7 6 6 6 7 7 6 6 6 6 6 7 7 6 6 7
34 34 33 32 30 30 30 29 30 30 29 27 26 25 23 22 21 20 20 20 20 21 21 19 18 18 18 17 17 17 17 16 15 15 14 13 13 12 12 11 10 10 10 11 11 11 10 8 8 7 6 5 4 3 2 5 8 10 10 10 9 8 8 9 10 11 11 10 9 9 8 7 7 7 6 6 6 5 5 5 5 6 5 5 6
32 34 34 33 32 31 30 30 31 31 31 30 28 27 26 24 22 22 21 21 21 22 23 22 20 19 18 17 17 17 17 17 16 15 15 14 13 13 12 11 11 11 10 10 10 10 9 8 7 6 5 5 5 3 1 4 9 9 8 8 8 7 7 8 10 11 12 11 11 12 12 10 9 8 7 6 6 5 5 4 4 4 5 5 5
31 33 35 35 34 32 31 32 32 33 33 32 30 29 29 26 24 23 22 21 21 22 22 22 21 19 18 18 17 17 18 18 17 15 15 14 14 13 12 12 11 10 9 9 10 9 9 8 7 6 5 6 5 4 2 3 7 8 6 4 4 5 5 7 9 10 11 11 11 13 14 14 12 10 8 8 8 7 6 5 5 5 5 5 5
33 34 35 35 34 33 32 32 33 34 34 32 31 31 30 28 25 23 22 21 21 20 20 21 20 20 20 19 18 18 18 18 17 16 15 15 14 13 13 12 11 10 10 10 9 9 9 8 7 6 6 7 6 5 4 2 4 7 5 1 2 2 3 6 9 11 12 12 11 12 14 15 13 11 10 10 9 8 7 7 7 7 7 7 7
33 34 35 35 35 35 33 33 34 35 35 33 33 32 30 28 25 23 22 21 20 19 20 21 21 21 22 21 19 19 18 17 17 16 15 15 14 14 13 12 11 11 11 11 9 9 9 9 8 7 7 8 7 6 6 3 4 7 4 1 1 2 1 5 7 11 12 12 13 13 13 14 13 12 12 12 10 9 9 9 8 8 8 8 8
33 35 36 36 36 37 36 34 35 36 35 34 33 31 30 28 25 21 20 20 19 20 22 23 23 24 23 21 20 19 18 17 17 16 15 14 13 14 14 12 11 11 11 10 9 8 9 9 9 8 7 8 8 7 7 5 5 7 4 1 1 1 2 2 4 8 11 12 13 13 13 14 14 13 13 13 12 11 10 10 10 10 9 9 9
34 36 38 38 37 38 37 35 35 36 35 35 35 33 31 30 27 23 21 20 19 22 25 26 26 26 23 21 19 19 18 18 18 17 15 14 13 14 14 13 12 11 9 9 8 8 9 10 10 9 7 7 8 7 8 6 5 7 6 3 2 2 3 1 0 3 7 10 12 12 13 15 14 15 15 14 13 12 12 11 11 11 10 10 10
36 37 38 38 38 38 38 37 36 36 36 36 35 34 32 32 30 28 26 25 24 23 25 27 28 27 24 21 20 20 19 19 19 17 15 13 13 14 13 12 12 10 9 9 8 8 9 10 10 10 8 7 8 8 8 8 6 7 7 6 5 6 6 4 3 1 3 6 8 10 12 14 15 16 17 16 15 14 13 12 12 11 11 11 11
36 37 37 38 38 39 39 39 37 36 37 37 36 35 34 33 32 30 28 28 27 24 23 25 27 27 24 22 21 21 20 19 19 17 16 14 13 13 12 12 12 10 9 9 8 8 8 9 10 10 9 8 8 7 8 9 8 8 7 8 7 7 7 5 5 4 2 1 5 7 7 9 13 16 18 18 17 16 16 14 13 13 12 12 12
37 37 38 38 38 39 39 39 38 37 37 37 37 37 36 35 34 32 29 28 27 23 22 24 26 26 25 23 22 22 20 20 18 17 17 15 14 13 12 12 11 10 10 9 8 8 8 9 10 11 11 10 8 6 8 10 10 9 8 8 8 7 5 4 5 4 2 1 3 4 4 5 8 13 17 19 19 18 17 16 16 15 14 13 13
36 38 38 37 37 38 38 39 39 38 37 38 39 38 36 36 35 33 31 29 26 23 21 24 26 26 25 24 23 23 21 20 19 18 17 16 15 14 13 13 12 11 11 10 9 9 9 9 10 11 11 10 9 7 7 8 10 9 8 8 8 7 4 3 3 3 1 0 1 2 3 3 5 7 11 15 18 18 18 18 17 17 16 15 14
35 36 37 37 38 38 38 39 39 38 37 38 39 39 37 36 36 35 33 31 28 24 23 26 27 27 26 26 24 23 22 21 19 18 18 17 16 15 14 14 12 12 11 11 11 10 10 10 11 11 11 10 9 8 7 8 8 9 8 7 7 7 5 3 4 3 2 2 1 2 3 3 4 6 6 8 12 16 17 18 18 17 17 16 15
Wind_Direction
139 132 131 136 138 135 133 135 136 136 134 133 135 134 132 131 130 129 127 126 123 121 121 122 122 120 118 115 112 110 109 108 109 110 110 110 110 111 114 116 116 116 115 113 115 117 116 115 113 111 112 113 112 113 115 115 112 112 114 113 111 109 107 102 100 99 98 96 96 96 98 98 101 103 106 108 107 106 107 108 109 109 108 107 103
143 137 134 136 135 131 130 137 138 136 134 134 137 137 136 135 134 132 129 125 123 122 121 122 120 117 116 113 110 107 106 106 107 107 107 107 106 108 111 116 118 118 116 115 115 113 113 114 114 113 113 112 111 114 116 116 116 114 114 113 112 110 106 103 100 98 96 96 97 98 100 101 102 103 105 107 107 107 108 110 113 112 110 107 101
143 143 138 135 131 129 133 138 137 136 136 136 137 138 138 137 134 131 128 124 122 123 124 122 119 116 115 112 108 105 104 105 106 107 107 107 107 108 110 114 117 118 118 118 115 113 115 117 117 115 115 113 112 114 115 118 121 119 116 114 113 110 107 105 104 103 102 101 101 101 100 100 101 102 104 105 107 107 108 111 112 110 109 106 99
145 144 138 136 135 136 138 138 137 137 137 138 140 139 140 138 134 130 127 124 124 126 126 124 121 119 116 112 107 105 103 105 107 107 108 108 109 109 110 111 113 116 117 117 115 116 117 117 117 118 119 118 117 116 116 119 122 120 118 115 110 107 107 105 105 107 108 108 107 104 99 99 101 102 103 104 106 105 105 108 109 108 106 103 98
144 141 138 137 139 140 139 139 139 138 139 140 143 144 142 138 134 131 128 127 128 129 126 123 123 122 118 115 111 107 106 108 108 108 109 108 107 106 109 108 109 114 115 117 117 116 116 115 116 119 120 119 120 119 118 119 120 119 117 114 108 104 105 106 107 110 111 110 108 103 98 100 101 100 100 100 103 105 105 107 109 108 104 100 99
144 140 138 139 141 141 141 141 140 140 141 142 145 146 142 138 135 133 131 130 130 129 126 125 125 125 122 120 116 110 107 109 108 108 108 107 105 104 107 108 110 113 115 116 114 112 113 113 115 118 119 120 122 121 120 119 118 116 115 111 107 105 106 108 110 113 114 111 107 104 100 99 100 99 98 97 98 101 104 107 108 105 101 100 102
143 142 141 142 143 142 142 142 142 143 143 145 147 147 142 138 136 136 135 132 131 130 129 128 127 126 123 120 116 109 104 105 104 106 108 107 105 104 106 109 112 113 114 114 111 110 111 113 114 116 117 120 121 122 121 119 116 113 114 111 107 107 108 111 115 116 114 111 108 106 103 100 98 97 98 99 98 99 101 103 104 102 101 103 104
144 144 144 145 144 145 144 143 144 145 146 148 148 146 142 138 138 138 136 133 132 132 130 128 126 125 121 117 112 107 104 103 103 106 108 108 108 108 109 111 112 111 112 112 111 109 109 110 110 110 113 117 120 122 121 120 118 114 114 111 109 110 111 116 119 119 115 112 109 107 105 103 101 99 100 101 101 101 102 101 101 102 103 106 108
146 146 147 147 147 148 147 146 145 146 148 148 148 145 141 141 142 139 135 132 133 134 132 130 129 127 123 117 112 109 108 107 107 110 113 113 113 113 114 113 112 109 109 110 108 105 104 104 104 107 110 114 118 120 120 119 118 115 113 113 114 113 115 121 122 122 117 112 109 108 106 105 104 103 103 104 105 105 105 106 105 106 107 109 109
149 149 150 150 150 152 151 148 145 146 149 148 147 145 144 144 142 138 136 134 136 137 136 135 133 130 126 120 117 116 115 113 113 117 118 118 117 116 117 114 111 110 109 107 103 101 102 102 102 105 109 112 115 118 118 117 115 113 113 114 117 118 121 126 126 125 119 115 111 109 108 108 106 104 105 106 108 108 108 109 108 108 109 109 108
151 151 153 152 152 155 152 148 146 149 151 150 146 145 146 144 141 140 140 140 141 141 139 140 139 135 132 128 124 123 121 119 119 124 125 122 120 118 118 116 113 110 108 106 103 102 102 102 102 104 109 112 114 118 118 118 116 113 113 115 118 121 127 129 129 127 122 118 115 112 111 109 106 106 107 109 111 111 111 110 109 109 110 110 109
154 154 154 153 154 155 152 150 151 151 152 149 146 146 147 145 143 142 142 143 144 145 144 145 144 141 140 136 130 128 127 125 127 130 128 124 121 120 120 118 116 114 111 109 106 103 101 102 103 103 107 111 115 117 117 119 120 116 116 117 118 123 129 130 129 127 122 118 116 115 113 109 108 109 108 110 113 113 112 111 111 111 110 110 108
155 156 155 154 155 156 153 153 153 153 152 148 147 148 147 146 143 141 141 144 146 147 148 148 147 144 144 141 134 131 130 129 132 131 127 125 123 122 120 118 117 115 114 112 107 103 102 101 102 104 107 108 111 112 113 117 120 120 118 118 119 124 130 131 129 125 121 120 119 116 113 112 111 111 110 113 115 114 114 113 112 112 111 109 105
156 157 157 156 156 156 155 155 155 154 151 147 150 151 151 150 147 143 142 145 147 148 150 148 147 146 147 144 137 135 133 132 130 128 127 126 124 123 121 120 119 116 114 112 108 105 103 101 100 104 106 105 106 108 110 114 118 121 120 120 121 126 132 131 129 125 122 122 120 117 114 114 114 113 114 116 118 118 116 114 113 113 112 108 104
157 158 159 157 156 157 156 155 155 152 149 149 153 156 156 155 151 148 147 151 151 150 150 148 148 150 149 147 143 138 135 132 129 128 128 126 125 124 122 121 118 114 113 112 110 108 106 104 102 102 102 102 105 108 112 114 117 121 121 122 123 129 135 132 129 126 125 124 121 118 115 115 116 115 116 118 120 120 118 116 114 113 111 108 105
157 159 159 158 158 158 156 155 154 151 151 155 157 159 159 157 154 153 156 157 153 152 153 153 153 153 151 151 148 140 136 135 130 129 126 122 124 123 122 121 117 115 115 115 114 112 109 108 106 104 103 102 104 108 112 114 117 120 121 123 125 131 136 135 134 131 128 128 125 121 118 117 119 119 118 119 120 120 118 116 114 112 111 109 106
158 160 159 159 159 159 158 156 155 154 157 158 157 158 159 158 157 159 162 159 156 157 160 159 156 154 154 153 150 142 139 137 131 127 122 118 118 122 125 124 121 120 120 119 117 115 114 112 109 106 105 104 106 110 112 114 117 119 121 121 123 132 137 138 138 137 135 132 128 125 123 122 122 121 120 120 120 119 117 115 114 113 112 110 106
159 161 161 160 161 161 161 159 158 159 160 158 158 158 158 159 160 161 160 158 161 161 161 160 158 158 157 154 151 144 141 140 134 129 122 118 118 123 128 128 126 124 123 122 121 120 117 113 110 109 107 106 109 114 117 119 120 119 122 122 123 133 138 139 140 142 143 137 133 130 128 126 125 124 123 122 120 118 117 117 117 116 115 112 106
159 162 162 163 165 164 164 162 163 163 162 160 159 159 159 160 161 161 159 159 160 157 157 157 157 159 158 155 151 145 142 141 139 136 128 121 120 124 129 132 130 126 128 127 125 123 118 114 114 112 109 110 113 116 119 122 122 121 122 125 126 134 140 141 142 145 147 143 139 135 132 130 127 126 125 123 122 120 120 120 119 117 114 111 106
159 164 165 167 169 168 167 166 165 164 163 161 158 159 162 161 160 159 158 159 157 155 156 156 156 157 156 155 152 146 144 142 143 143 132 124 122 125 130 135 133 132 134 132 129 125 118 118 119 113 109 112 115 115 117 120 123 125 123 123 127 133 139 143 145 148 152 151 147 140 135 133 130 129 128 127 127 124 122 121 118 115 112 108 106
163 167 169 171 173 171 170 168 166 163 162 159 157 160 161 159 157 155 156 158 156 155 156 155 155 154 153 154 152 148 149 149 149 146 135 126 124 124 130 135 134 134 135 133 131 128 123 122 120 115 112 114 116 116 115 116 121 126 126 126 131 135 138 145 150 153 154 153 150 141 134 133 133 134 133 133 130 125 124 121 118 116 110 105 107
167 170 173 176 175 174 172 168 165 163 162 160 158 160 157 153 152 151 155 157 155 155 154 153 153 155 155 155 154 153 155 154 150 145 136 129 125 123 127 132 133 134 134 133 132 132 131 124 119 117 117 115 113 115 114 115 119 123 129 136 137 135 137 145 153 156 154 153 152 145 137 136 137 136 134 132 128 124 123 121 119 118 113 110 110
170 172 175 178 177 176 175 170 166 163 164 162 158 159 155 152 153 154 157 157 155 155 154 153 155 157 157 156 156 157 158 155 149 144 137 132 127 125 128 130 133 134 135 135 137 138 136 130 122 117 117 114 109 115 120 123 125 130 142 142 135 130 135 144 151 156 157 158 159 152 144 142 143 139 136 137 136 132 129 127 129 129 125 120 118
173 174 176 178 180 178 176 173 168 166 166 163 160 159 157 157 158 157 159 157 156 156 154 156 157 157 157 157 157 158 159 154 149 145 141 138 133 135 136 138 140 140 142 142 142 142 143 143 133 127 125 120 112 113 122 127 133 146 150 138 129 128 132 141 149 154 158 162 163 156 147 144 146 145 144 147 147 146 143 142 142 142 141 138 136
173 174 177 180 181 180 178 175 170 169 169 165 162 162 161 161 160 159 160 158 158 158 157 157 155 155 156 156 157 157 159 155 154 153 151 149 148 150 149 153 155 148 149 148 148 149 153 155 151 148 141 131 121 112 118 135 145 150 153 136 125 127 131 141 149 152 155 160 159 151 146 146 149 151 153 157 157 159 159 157 154 156 161 166 172
173 174 179 181 182 181 179 177 173 172 172 169 165 165 165 163 162 160 161 161 160 160 159 157 154 155 155 154 155 156 160 160 162 163 161 161 159 159 158 158 156 149 148 149 148 149 152 155 157 159 154 144 132 119 125 151 165 161 165 157 133 128 132 147 157 159 158 160 157 150 149 150 151 151 153 158 159 163 165 166 167 172 181 190 194
174 177 180 182 183 183 182 179 176 175 174 173 168 167 167 165 164 163 164 163 162 163 161 160 158 159 157 157 158 159 161 162 167 168 166 165 163 162 160 158 155 151 147 147 148 147 149 155 162 170 173 171 159 139 143 164 182 183 186 187 160 141 134 154 175 176 171 169 163 159 160 157 155 154 155 161 165 168 171 173 177 183 189 198 205
175 178 180 182 184 185 183 181 179 178 177 175 171 170 169 167 167 168 166 165 166 168 166 164 164 163 161 162 165 164 162 162 165 165 163 162 163 162 160 160 159 157 155 153 156 156 158 162 170 180 185 195 215 221 191 182 194 197 203 208 182 157 150 165 182 184 177 173 167 164 163 159 157 157 160 171 177 180 180 182 186 190 193 202 215
177 178 180 183 185 185 184 183 182 181 180 176 173 172 172 170 171 171 169 169 171 173 171 168 166 166 165 167 170 166 162 163 164 161 160 159 161 163 163 164 165 166 166 163 163 162 168 173 183 196 207 221 230 240 233 213 206 205 208 215 202 179 176 178 184 184 177 171 165 162 161 156 153 153 163 177 184 191 196 198 201 206 204 209 220
179 179 180 183 184 185 186 186 185 184 182 178 175 174 174 174 175 174 172 173 174 176 175 170 170 171 170 171 172 169 166 168 172 168 163 160 164 169 170 173 174 174 172 167 167 167 169 179 197 227 246 244 238 241 238 221 211 208 207 213 214 196 188 187 185 186 183 178 171 166 166 162 156 157 168 176 182 191 200 205 209 214 214 218 225
179 179 181 183 184 186 190 190 188 187 185 181 177 176 177 178 178 177 176 176 176 179 180 177 178 178 174 175 176 177 177 178 185 182 172 169 172 176 179 184 186 180 174 171 173 172 170 177 206 277 278 260 241 236 233 221 212 209 206 210 218 208 192 189 187 192 191 187 182 174 171 174 178 185 190 195 196 196 203 209 212 215 219 227 234
181 181 183 184 184 188 192 192 191 188 187 184 180 179 180 180 180 180 180 179 181 183 185 185 183 182 179 180 182 185 188 189 192 190 183 181 181 182 183 186 186 183 184 185 188 191 188 189 201 252 264 256 241 229 224 220 213 209 206 209 218 215 199 197 197 201 201 196 193 186 183 187 197 210 216 218 217 216 218 216 215 217 226 237 244
182 183 184 184 185 189 192 193 193 190 188 187 183 182 183 182 183 183 183 183 185 186 187 188 185 184 184 184 186 191 196 195 195 197 197 197 195 192 188 184 185 188 190 190 193 197 198 198 200 232 251 249 245 227 219 218 214 211 207 208 218 220 210 210 208 210 212 209 206 202 201 202 207 218 226 229 229 231 231 229 231 234 242 249 255
182 183 184 186 186 187 190 192 194 192 190 188 185 183 184 185 186 186 187 188 188 189 189 190 190 189 190 189 190 195 199 198 195 196 196 198 199 194 190 190 190 189 189 191 195 200 205 210 213 227 232 232 230 221 218 216 213 210 207 207 214 222 221 220 219 218 220 220 220 219 218 218 220 225 230 234 238 239 239 240 243 248 255 259 264
182 183 186 187 186 187 188 190 194 194 191 191 187 184 186 187 190 191 191 191 191 192 193 194 196 197 195 193 194 197 199 197 194 192 189 190 194 194 193 195 197 199 199 198 202 210 217 224 226 220 208 191 204 231 219 212 211 208 204 206 212 220 225 225 225 224 225 225 226 228 228 229 230 233 235 238 242 244 245 246 248 251 257 261 264
185 185 187 186 187 188 188 189 193 194 193 194 189 186 188 190 194 197 196 196 195 196 197 198 200 202 200 197 197 198 199 198 194 191 189 189 192 194 195 198 203 208 212 211 213 221 228 232 231 222 207 171 148 279 216 204 208 209 204 205 210 218 224 227 227 227 227 227 227 230 232 236 237 239 242 243 247 248 249 250 250 252 256 260 264
188 187 186 186 187 188 188 190 193 194 194 194 192 190 192 196 200 201 201 201 200 198 198 201 203 204 203 201 200 201 202 201 198 195 194 195 196 197 199 201 206 209 216 222 224 226 232 234 230 224 212 184 132 97 198 201 205 209 208 210 214 218 223 226 230 233 233 231 230 230 232 237 239 242 244 246 251 252 253 253 253 254 256 259 262
189 189 188 188 188 189 190 191 193 193 193 195 194 193 197 202 205 206 206 205 204 203 200 202 204 205 203 202 203 204 205 205 201 200 202 203 204 205 204 201 204 209 216 222 223 225 229 227 223 221 215 203 165 126 150 197 205 210 209 211 217 220 226 231 237 241 239 237 235 235 235 237 240 242 243 246 250 257 261 261 260 260 261 263 264
189 190 190 189 188 190 191 191 193 193 192 195 195 196 203 207 208 210 212 211 212 211 206 204 205 204 202 202 205 205 205 206 203 202 204 208 211 211 209 206 205 207 210 213 214 217 220 216 214 218 217 214 198 157 147 176 200 211 210 211 220 228 237 241 244 247 246 244 241 241 242 241 243 240 242 245 248 258 269 269 265 264 267 272 272
189 190 189 189 189 190 191 191 193 192 192 195 197 201 205 204 204 208 212 213 216 216 211 209 207 204 202 203 206 206 206 206 204 204 207 212 215 213 213 213 209 205 207 209 209 209 210 207 207 212 212 211 201 185 197 190 189 200 208 212 219 229 238 243 248 251 254 255 253 250 249 249 250 246 244 248 253 265 277 276 267 262 267 277 281
188 189 188 189 190 191 192 192 193 193 193 194 197 202 202 197 197 202 207 210 211 213 212 211 211 207 204 204 205 206 207 208 208 208 211 214 213 214 216 213 206 204 208 210 210 209 204 200 202 203 199 195 186 173 226 201 181 181 197 205 210 223 233 243 250 252 258 266 268 263 257 256 256 256 256 256 260 269 277 278 269 266 270 277 281
187 189 188 188 190 192 193 193 193 193 194 195 197 199 199 197 196 198 204 205 206 209 211 212 211 209 206 205 206 206 207 208 210 214 217 216 213 214 213 209 204 202 204 209 212 212 207 202 201 198 186 178 178 165 144 162 167 168 173 188 224 249 244 246 252 256 266 276 280 274 264 259 258 260 264 263 264 266 270 274 274 279 280 282 282
186 189 190 188 189 191 193 193 192 192 194 197 197 196 197 200 199 198 201 201 203 210 214 213 211 210 209 209 209 208 207 209 212 217 221 220 218 216 210 207 206 201 201 207 210 210 208 205 199 196 187 178 179 175 170 174 164 157 142 108 279 291 273 262 258 261 273 281 284 281 269 258 254 256 261 263 264 265 269 273 276 284 287 290 291
186 188 189 188 188 191 192 193 192 193 195 197 197 196 197 200 201 200 201 204 208 215 216 214 212 212 211 211 212 209 209 211 212 217 221 222 221 218 211 207 207 203 205 212 212 209 206 201 198 196 189 182 185 189 194 214 189 167 138 55 321 35 318 280 273 263 267 276 280 281 271 257 249 249 255 260 264 266 268 270 275 282 287 291 295
186 188 189 189 189 191 192 193 193 194 196 197 197 198 197 199 199 198 198 200 207 211 210 209 210 213 212 211 212 210 210 210 212 216 219 220 220 217 212 209 208 207 208 215 216 212 207 202 202 202 196 191 192 197 205 212 202 193 179 138 66 24 248 273 304 269 260 268 276 278 271 260 250 246 251 259 264 265 266 268 272 278 284 289 294
188 189 190 190 190 191 192 193 194 195 197 197 196 198 198 198 197 196 192 190 197 204 207 208 208 211 212 211 211 210 210 210 211 216 218 217 216 215 214 211 212 211 208 211 213 214 210 206 208 210 208 205 203 205 209 207 202 205 208 211 239 265 256 264 12 278 274 269 268 271 270 265 255 249 251 258 264 266 267 270 274 278 282 287 291
189 189 190 191 191 192 192 193 194 195 196 196 196 197 197 197 199 200 197 193 196 203 209 212 212 213 213 213 212 210 210 210 211 215 217 216 215 216 215 213 214 213 209 209 211 215 213 210 212 212 214 216 216 217 217 214 212 211 215 231 257 273 279 265 212 241 310 275 267 272 273 269 258 252 254 259 265 268 270 272 278 283 283 285 289
188 188 189 191 192 192 192 193 194 196 196 195 195 196 196 197 200 203 203 201 202 205 210 212 213 215 215 215 213 211 210 211 211 214 217 217 217 217 214 212 215 215 213 213 212 213 212 212 213 211 214 218 219 225 227 224 223 222 223 235 262 282 280 267 254 249 218 251 287 287 287 281 261 253 257 261 264 268 272 274 279 284 287 287 288
188 188 189 190 192 192 192 192 194 196 196 196 196 197 198 198 200 204 206 206 206 208 209 210 211 213 214 215 214 212 211 210 210 213 217 218 217 218 217 216 218 218 218 219 218 216 214 215 216 213 216 218 217 226 229 227 228 233 241 244 256 275 276 274 272 251 202 183 282 286 317 310 274 262 261 261 263 266 271 275 278 280 284 286 287
189 189 189 190 191 192 191 192 193 195 197 197 197 198 199 200 201 205 207 207 207 207 206 208 210 211 212 214 214 213 211 209 209 212 216 217 217 219 222 222 223 223 223 224 222 218 215 214 216 218 221 221 220 220 220 222 227 232 239 241 247 260 264 264 255 235 230 27 250 283 300 291 287 288 276 266 265 268 272 276 279 278 280 284 287
189 189 189 190 190 191 191 192 194 195 196 198 198 199 199 201 203 205 207 208 207 205 203 205 208 209 210 212 214 214 213 210 209 211 214 216 217 219 223 226 228 227 226 227 224 222 221 220 221 223 223 224 223 221 213 214 222 225 227 233 244 254 253 257 262 267 304 328 292 282 274 268 295 316 319 295 279 274 273 276 279 280 281 284 288